User: anonymous   Login
Location: D.A.R.C. Observatory
(36.7133°N, 120.8553°W)
Time: 06:54:11
(UTC-07:00)
Language:

USA 215 - Orbit

View from above orbital plane
View from above orbital plane
View from above satellite
View from above satellite

Ground track
Ground track

The orbit data is extracted from the following two-line orbital elements,

1 37162U 10046A   15239.07827427 0.00000000  00000-0  00000-0 0    00
2 37162 123.0041 286.8162 0004000  42.6430 317.3569 13.41445919    03
Epoch (UTC): 27 August 2015 01:52:42
Eccentricity: 0.0004000
inclination: 123.0041°
perigee height: 1101 km
apogee height: 1107 km
right ascension of ascending node: 286.8162°
argument of perigee: 42.6430°
revolutions per day: 13.41445919
mean anomaly at epoch: 317.3569°
orbit number at epoch: 0

The dashed part of the orbit path shows where the satellite is in the earth's shadow,  

DLR